SCP
0 0 0 0 0 0 0 0 0 0 0 1 2 2 2 2 3 4 4 4 5 6 6 5 4 4 4 4 4 3 3 3 4 4 4 4 5 5 5 4 5 6 7 7
0 0 0 0 0 0 0 0 0 0 1 1 2 2 2 2 3 3 4 5 6 7 6 5 4 4 4 4 3 3 3 4 4 4 4 4 5 5 5 4 4 5 6 7
0 0 0 0 0 0 0 0 0 1 1 1 1 2 2 2 2 3 4 5 7 8 7 5 5 5 5 4 3 3 3 4 5 5 5 5 5 5 5 4 4 4 5 7
0 0 0 0 0 0 0 0 0 0 1 1 1 1 1 2 3 3 4 5 7 8 7 6 5 5 4 4 3 4 4 5 5 6 5 5 5 5 4 4 3 3 4 5
0 0 0 0 0 0 0 0 0 0 0 0 1 1 1 2 3 3 4 5 7 8 8 6 5 4 4 3 3 4 5 6 6 6 4 4 4 4 4 4 3 3 3 3
0 0 0 0 0 0 0 0 0 0 0 0 1 1 1 2 3 3 4 6 7 8 9 7 4 4 4 3 3 4 5 6 6 4 4 3 3 3 2 2 2 2 2 2
0 0 0 0 0 0 0 0 0 0 0 0 1 1 2 3 3 4 5 6 7 9 8 6 4 4 4 3 3 4 4 4 4 3 3 2 2 2 1 1 1 1 1 1
0 0 0 0 0 0 0 0 0 0 0 0 1 2 2 3 4 5 6 6 7 8 7 5 4 3 3 3 3 3 3 3 2 2 2 2 1 1 1 1 1 1 1 1
0 0 0 0 0 0 0 0 0 0 0 0 1 2 2 3 4 4 5 6 7 7 6 5 4 3 3 2 3 3 3 2 2 1 1 1 1 1 1 1 1 0 0 0
0 0 0 0 0 0 0 0 1 1 1 0 1 1 2 3 3 3 4 6 7 8 7 5 4 3 3 2 2 2 2 2 1 1 1 1 1 1 1 1 1 0 0 0
0 0 0 0 0 0 0 0 1 1 1 0 1 1 2 3 3 3 4 6 8 8 6 4 3 3 2 2 2 2 2 2 2 1 1 1 1 1 1 1 1 0 0 0
0 0 0 0 0 0 0 0 0 1 1 0 1 1 2 3 4 4 5 7 7 6 5 4 3 2 2 2 2 2 2 2 1 1 1 1 1 1 1 0 0 0 0 0
1 1 0 0 0 0 1 1 1 1 1 1 1 1 3 4 4 4 5 6 6 6 5 3 2 2 1 1 1 1 1 1 1 1 1 1 1 0 0 0 0 0 1 0
1 1 0 0 0 0 0 0 1 1 1 1 1 1 3 4 4 4 5 5 4 4 4 3 3 2 1 1 1 1 1 1 0 0 0 0 0 0 0 0 0 1 1 1
1 1 0 0 0 0 0 0 0 1 1 1 1 1 2 3 4 4 4 3 3 3 4 4 3 2 1 1 1 1 1 0 0 0 0 0 0 0 0 0 0 1 1 1
1 0 0 0 0 0 0 0 0 1 1 1 1 2 2 3 4 4 3 2 2 4 5 5 3 2 1 1 1 1 1 0 0 0 0 0 0 0 0 0 0 1 1 1
1 1 0 0 0 0 0 0 0 1 1 1 2 2 3 3 4 4 3 2 3 5 5 4 2 1 1 1 1 1 0 0 0 0 0 0 0 0 0 0 0 0 1 1
1 1 1 0 0 0 0 0 0 1 1 1 2 3 3 3 3 3 3 3 4 5 4 2 1 1 1 1 1 0 0 0 0 0 0 0 0 0 0 0 0 0 0 0
1 1 1 1 0 0 0 0 0 1 1 1 2 3 3 3 3 3 3 3 3 4 3 1 1 1 1 1 0 0 0 0 0 0 0 0 0 0 0 0 0 0 0 0
1 1 1 1 0 0 0 0 0 0 1 1 2 2 2 1 2 2 3 3 3 2 1 1 1 1 1 1 1 0 0 0 0 0 0 0 0 0 0 0 0 0 0 0
1 1 1 1 0 0 0 0 0 1 1 1 1 1 1 1 1 2 3 3 2 1 1 0 0 1 1 1 1 0 0 0 0 0 0 0 0 0 0 0 0 0 0 0
1 1 1 1 1 1 1 1 1 1 1 1 1 1 1 1 2 2 3 3 2 1 1 0 0 0 1 0 0 0 0 0 0 0 0 0 0 0 0 0 0 0 0 0
1 1 1 1 1 1 1 1 1 1 1 1 1 1 1 1 1 2 2 3 2 1 1 0 0 0 0 0 0 0 0 0 0 0 0 0 0 0 0 0 0 0 0 0
1 1 1 1 1 1 1 1 1 1 1 1 1 1 1 1 1 1 2 2 2 2 1 1 1 1 1 0 0 0 0 0 0 0 0 0 0 0 0 0 0 0 0 0
1 1 1 1 1 1 1 0 0 1 1 1 1 1 0 1 1 1 2 2 3 2 1 1 1 1 1 1 0 0 0 0 0 0 0 0 0 0 0 0 0 0 0 0
1 1 1 1 1 1 0 0 0 1 1 1 1 0 0 0 1 1 1 2 3 3 2 1 1 1 1 1 1 1 0 0 0 0 0 0 0 0 0 0 0 0 0 0
Wind_Speed
11 12 12 12 14 13 10 12 12 10 11 11 10 12 13 15 13 13 13 12 10 11 11 10 9 9 8 6 6 6 6 5 3 2 2 2 2 2 3 3 3 2 3 3
10 14 14 11 11 12 11 11 9 8 10 7 7 9 10 12 13 12 12 13 13 11 12 10 9 8 7 6 6 6 6 5 4 2 1 1 2 2 2 2 2 2 3 3
12 8 10 9 9 11 12 10 8 6 7 9 8 8 9 10 10 10 10 12 14 14 12 10 9 8 8 7 6 5 5 5 4 3 2 2 2 2 2 2 2 2 3 3
11 8 6 8 10 11 10 9 8 7 8 8 10 8 10 10 10 11 11 11 12 14 13 10 9 9 8 7 7 6 5 5 4 3 2 2 2 2 2 2 2 2 2 2
8 7 7 10 10 10 9 7 9 10 10 10 9 9 7 11 11 11 11 12 12 13 13 11 10 9 8 8 7 6 6 5 4 4 4 3 4 3 2 3 3 2 2 2
10 7 7 9 9 8 8 8 8 8 9 13 10 9 6 8 10 10 11 13 14 14 13 12 10 10 9 8 7 7 6 6 5 5 5 5 5 4 3 2 2 1 2 3
10 11 9 9 9 9 9 7 5 6 8 9 7 8 4 6 8 9 11 13 14 14 13 12 11 10 9 8 7 7 6 6 5 6 5 4 4 3 4 3 3 3 3 3
9 9 9 8 9 7 9 10 8 6 7 7 5 4 3 6 9 9 11 13 14 14 13 12 11 10 9 8 7 7 6 6 5 6 5 4 3 3 3 4 3 4 3 3
6 6 7 9 8 9 10 11 10 9 10 7 4 3 6 6 10 11 13 13 13 13 12 12 11 9 8 8 7 6 6 6 5 5 4 4 4 4 3 3 3 3 3 3
6 8 7 7 8 11 10 9 6 7 7 7 5 2 1 3 8 9 10 12 13 13 12 11 10 9 8 7 7 6 6 5 5 4 4 4 4 4 4 4 4 4 4 3
5 6 7 7 8 8 7 8 8 7 6 6 5 1 2 4 5 8 9 11 13 13 13 11 9 8 8 7 7 6 5 5 5 5 4 4 4 4 4 4 4 4 4 4
3 4 7 7 6 5 6 8 7 6 6 6 4 2 3 6 7 8 10 12 12 12 12 11 10 8 7 7 7 6 5 5 5 5 4 4 4 4 4 4 4 4 4 4
2 2 5 6 5 3 5 6 7 6 5 5 4 2 5 6 8 8 11 11 11 12 11 10 9 7 7 6 6 5 5 5 4 5 5 4 4 4 4 4 3 4 4 4
3 3 5 6 6 5 5 6 6 5 4 5 3 4 6 8 9 8 9 11 10 11 11 10 8 7 6 5 5 5 5 4 4 4 4 4 4 3 3 3 3 4 4 4
3 5 6 8 8 6 5 5 4 3 4 4 0 4 6 8 9 9 9 10 11 10 10 10 9 7 6 5 4 4 4 3 3 4 4 4 4 3 3 3 4 4 4 5
2 4 6 7 8 6 6 4 4 3 4 3 5 5 7 8 9 9 9 10 11 10 9 9 9 8 7 5 4 4 3 3 3 4 4 4 3 3 3 3 4 4 5 5
3 3 6 6 7 5 3 3 3 4 6 4 3 5 8 8 9 9 9 10 10 10 9 9 8 7 6 5 4 4 3 3 4 4 4 4 3 3 3 4 4 4 4 4
4 4 4 4 4 4 1 3 3 4 5 6 7 8 7 8 8 8 8 8 9 9 9 9 8 7 6 5 4 4 4 4 4 4 4 4 3 4 4 4 4 3 3 3
3 3 4 4 3 1 1 1 1 3 4 6 7 9 9 9 10 8 7 8 9 9 8 7 7 7 6 6 5 4 4 4 4 4 4 4 4 4 4 4 4 3 3 2
4 3 4 4 3 1 0 2 1 3 3 5 6 7 8 7 4 5 8 9 10 9 8 7 7 7 6 5 4 4 4 4 4 4 4 4 4 4 4 4 3 2 2 2
4 4 5 5 2 2 2 2 1 1 3 5 6 6 6 4 5 10 10 10 10 9 8 7 7 6 5 5 4 4 4 4 4 4 4 4 4 3 4 3 2 1 2 3
2 2 1 3 1 2 5 3 4 5 6 7 8 8 9 11 12 12 11 11 10 9 8 7 6 6 5 4 4 5 5 4 4 5 5 4 3 3 4 2 2 1 2 2
1 2 2 3 4 6 7 7 6 6 7 8 9 10 10 11 11 11 11 10 9 8 7 6 7 7 5 4 4 5 5 4 5 5 4 3 3 3 2 1 1 1 1 1
3 2 3 5 7 7 7 7 7 8 8 9 10 10 10 11 12 11 10 9 8 7 7 7 7 7 6 5 5 5 5 5 5 5 4 3 3 3 2 1 1 1 1 1
2 2 3 5 6 7 7 7 7 8 9 10 10 10 10 11 11 11 9 9 8 7 6 6 6 6 6 6 5 5 5 5 5 4 3 3 3 3 3 2 2 2 3 3
3 1 1 3 6 5 7 7 8 8 9 10 10 10 10 10 10 10 9 8 7 8 7 7 7 6 7 7 6 5 6 5 4 3 3 2 2 3 3 3 2 2 1 2
Wind_Direction
210 231 231 218 221 237 252 240 221 203 177 204 197 172 176 174 176 168 164 157 145 133 124 122 116 110 103 94 91 87 81 68 61 68 79 85 95 90 78 71 56 33 9 0
210 230 242 237 229 241 254 250 229 196 164 191 207 188 183 181 178 175 168 155 141 135 128 125 120 114 107 98 90 85 81 74 63 67 84 109 97 86 91 77 61 30 21 10
229 235 230 241 231 240 250 249 236 207 182 194 217 214 201 192 179 170 163 153 145 143 136 133 128 118 109 100 89 80 74 71 53 49 82 92 98 91 84 97 81 43 29 28
236 235 227 231 235 236 245 251 249 234 221 216 215 229 212 198 184 178 163 152 144 138 137 139 132 122 114 107 98 89 82 75 59 49 56 81 88 80 60 60 67 55 36 31
239 217 218 230 233 233 249 249 247 240 242 246 228 245 218 184 191 186 170 155 145 138 140 140 132 124 116 110 102 94 85 71 57 48 47 53 65 68 62 57 59 53 50 40
260 249 232 239 241 238 249 252 252 254 252 247 239 238 230 184 191 189 174 157 147 142 140 136 128 122 114 107 100 94 88 74 60 55 54 57 67 64 59 46 51 43 56 42
234 236 228 239 239 227 233 242 238 244 249 255 262 249 193 159 158 175 173 158 146 141 137 134 130 125 116 107 101 96 92 81 70 66 62 61 60 66 61 35 35 33 42 40
243 227 210 223 236 233 232 243 239 242 260 270 251 246 126 127 135 139 149 143 140 139 136 135 132 126 120 115 108 104 97 88 81 76 66 56 51 55 51 35 34 35 34 39
281 265 219 219 230 242 240 241 250 267 275 271 238 157 108 110 119 128 133 134 135 136 133 128 126 124 120 115 112 108 101 93 86 83 79 63 54 56 53 41 40 40 28 37
285 288 246 223 227 236 250 254 261 264 277 277 255 218 131 150 128 131 137 138 137 134 130 127 124 117 112 110 105 101 98 98 93 82 69 72 59 54 52 50 51 41 28 27
272 283 269 243 233 243 247 253 262 273 279 287 280 141 115 152 147 137 142 139 139 138 134 129 121 116 113 112 114 114 109 100 90 80 69 63 59 52 52 52 50 41 29 26
261 278 276 267 264 265 252 262 258 267 278 286 296 70 102 131 131 130 127 129 134 129 127 127 125 123 121 118 114 111 110 101 96 92 84 68 64 56 52 51 47 42 34 27
293 277 281 277 250 257 255 255 263 269 287 283 279 131 111 110 103 109 120 125 129 128 128 128 128 131 131 125 120 116 114 107 104 101 93 81 76 70 58 50 47 44 35 29
273 254 245 257 273 272 255 262 268 274 277 291 295 143 138 122 116 116 121 125 130 135 135 135 132 128 124 121 121 118 108 109 112 107 106 99 89 78 66 54 49 44 37 37
258 263 257 262 270 265 269 273 286 301 304 286 66 118 132 129 126 131 130 131 133 141 140 141 136 131 130 125 119 115 114 112 110 110 109 104 98 86 77 64 56 45 34 41
240 275 279 275 265 261 267 291 312 346 3 46 89 77 95 114 117 126 134 141 142 144 146 144 140 141 140 137 132 127 126 130 128 117 112 105 102 93 79 76 66 53 42 39
227 247 259 262 257 237 249 325 344 20 19 18 69 112 123 120 126 137 142 144 144 145 146 144 143 143 140 137 136 140 142 140 127 118 111 109 104 91 77 76 73 61 50 48
255 254 258 268 273 267 32 27 43 55 49 57 91 115 119 117 121 127 131 137 139 140 140 141 142 141 135 132 138 141 133 124 122 118 114 112 106 96 85 80 74 69 65 58
248 266 273 264 254 235 109 20 68 84 69 73 100 113 116 120 117 117 125 129 128 132 134 136 140 143 143 142 142 137 136 133 133 125 114 106 97 93 88 81 73 72 75 70
195 228 262 271 274 269 152 356 19 125 111 92 110 121 129 147 142 131 128 122 120 124 127 131 137 136 135 138 141 139 135 129 121 112 103 90 86 88 89 86 81 84 91 90
217 220 249 272 269 95 13 8 295 257 103 95 101 111 127 118 97 125 128 123 124 126 129 132 133 130 130 135 138 136 126 116 112 107 101 92 87 91 97 94 87 88 93 83
287 283 272 289 263 71 22 49 54 80 93 94 95 99 103 103 112 122 125 125 128 130 132 135 131 123 122 130 140 132 120 114 112 109 107 105 96 87 90 95 99 108 122 121
49 20 23 46 81 85 64 78 93 105 100 101 103 108 114 118 125 126 126 128 130 132 135 138 132 128 128 136 138 128 124 124 119 112 114 115 104 93 92 103 129 153 186 175
137 96 113 104 110 105 96 95 93 95 100 104 112 119 122 124 126 129 130 132 135 135 139 140 136 136 137 138 131 127 127 122 121 124 125 128 131 126 113 69 54 60 31 21
57 110 116 118 127 121 107 101 99 103 108 110 112 117 123 128 132 133 134 138 140 138 139 141 141 143 145 141 138 143 138 134 134 134 139 140 139 126 117 92 43 42 57 48
34 55 138 128 135 126 124 120 117 116 118 120 121 121 127 132 136 135 135 138 141 143 143 145 148 149 146 147 148 147 146 149 153 160 179 179 171 170 173 164 145 74 134 138